EW6103 Weather Reports


time (UTC)temp
C
wind
direction
speed
KPH
gust
KPH
rain 1hr
cm
rain 24hr
cm
rain mn
cm
humidity
%
barometer
mb
20260504225007 13 45 1.6 4.8 0.00 0.00 0.00 71 1010.4
20260504224008 12 45 1.6 3.2 0.00 0.00 0.00 72 1010.5
20260504223010 12 45 0.0 1.6 0.00 0.00 0.00 76 1010.7
20260504222008 12 45 1.6 3.2 0.00 0.00 0.00 77 1010.8
20260504221006 12 45 0.0 1.6 0.00 0.00 0.00 77 1010.7
20260504220011 12 45 1.6 3.2 0.00 0.00 0.00 76 1010.7
20260504215006 13 0 3.2 4.8 0.00 0.00 0.00 73 1010.8
20260504214009 13 0 1.6 4.8 0.00 0.00 0.00 71 1010.7
20260504213009 13 90 0.0 3.2 0.00 0.00 0.00 75 1010.8
20260504212009 13 90 0.0 1.6 0.00 0.00 0.00 75 1010.9
20260504210012 14 180 0.0 1.6 0.00 0.00 0.00 73 1010.9
20260504205009 14 45 1.6 4.8 0.00 0.00 0.00 72 1010.8
20260504204008 15 0 1.6 6.4 0.00 0.00 0.00 71 1010.8
20260504202008 15 0 0.0 3.2 0.00 0.00 0.00 70 1010.7
20260504201007 15 135 1.6 6.4 0.00 0.00 0.00 70 1010.8
20260504200013 15 90 0.0 1.6 0.00 0.00 0.00 73 1010.7
20260504195009 15 0 0.0 1.6 0.00 0.00 0.00 72 1010.6
20260504194009 15 0 0.0 3.2 0.00 0.00 0.00 69 1010.5
20260504193010 15 0 0.0 1.6 0.00 0.00 0.00 71 1010.8
20260504192009 16 90 0.0 1.6 0.00 0.00 0.00 70 1010.7
20260504191007 16 45 0.0 1.6 0.00 0.00 0.00 70 1010.6
20260504190013 16 0 0.0 1.6 0.00 0.00 0.00 69 1010.4
20260504185009 17 0 0.0 1.6 0.00 0.00 0.00 68 1010.3
20260504184009 17 0 0.0 3.2 0.00 0.00 0.00 66 1010.2
20260504183010 17 0 0.0 3.2 0.00 0.00 0.00 66 1010.3
20260504182009 17 90 0.0 1.6 0.00 0.00 0.00 64 1010.3
20260504181006 18 0 1.6 3.2 0.00 0.00 0.00 63 1010.1
20260504180012 18 270 0.0 3.2 0.00 0.00 0.00 63 1010.1
20260504175008 19 0 0.0 1.6 0.00 0.00 0.00 62 1009.9
20260504174008 20 0 1.6 3.2 0.00 0.00 0.00 59 1009.8
20260504173010 20 0 0.0 3.2 0.00 0.00 0.00 60 1009.8
20260504171009 21 0 1.6 3.2 0.00 0.00 0.00 58 1009.8
20260504151008 24 270 0.0 4.8 0.00 0.00 0.00 39 1009.9
20260504141006 25 270 1.6 3.2 0.00 0.00 0.00 40 1010.2
20260504081006 18 135 6.4 9.7 0.00 0.00 0.00 49 1013.1
20260504050012 11 90 0.0 3.2 0.00 0.00 0.00 59 1013.3
20260504045007 11 90 0.0 3.2 0.00 0.00 0.00 59 1013.3
20260504043010 11 90 0.0 3.2 0.00 0.00 0.00 59 1013.3
20260504042013 11 90 0.0 3.2 0.00 0.00 0.00 59 1013.3
20260504040013 11 90 0.0 3.2 0.00 0.00 0.00 59 1013.3
20260504035009 12 135 1.6 3.2 0.00 0.00 0.00 56 1013.1
20260504034009 12 90 1.6 3.2 0.00 0.00 0.00 56 1013.0
20260504033009 12 90 1.6 6.4 0.00 0.00 0.00 55 1013.1
20260504031008 13 135 3.2 6.4 0.00 0.00 0.00 52 1013.0
20260504030013 13 90 4.8 8.0 0.00 0.00 0.00 51 1012.9
20260504025008 13 45 4.8 9.7 0.00 0.00 0.00 50 1012.8
20260504024009 13 90 6.4 11.3 0.00 0.00 0.00 50 1012.7
20260504023010 13 0 6.4 12.9 0.00 0.00 0.00 50 1012.6
20260504022011 13 90 6.4 9.7 0.00 0.00 0.00 50 1012.6
20260504021009 13 90 4.8 9.7 0.00 0.00 0.00 50 1012.7
20260504015008 13 90 4.8 11.3 0.00 0.00 0.00 50 1012.8
20260504014009 13 135 4.8 9.7 0.00 0.00 0.00 50 1012.8
20260504013009 13 90 3.2 6.4 0.00 0.00 0.00 51 1012.6
20260504012009 13 90 3.2 6.4 0.00 0.00 0.00 50 1012.7
20260504011013 13 90 3.2 8.0 0.00 0.00 0.00 50 1012.6
20260504010012 14 90 3.2 6.4 0.00 0.00 0.00 49 1012.6
20260504005008 14 90 6.4 11.3 0.00 0.00 0.00 48 1012.4
20260504004008 14 90 4.8 9.7 0.00 0.00 0.00 49 1012.6
20260504003010 14 90 4.8 8.0 0.00 0.00 0.00 48 1012.5
20260504002009 14 135 4.8 8.0 0.00 0.00 0.00 48 1012.5
20260504001009 14 90 4.8 8.0 0.00 0.00 0.00 48 1012.5
20260504000012 14 90 4.8 9.7 0.00 0.00 0.00 48 1012.6
20260503235006 14 90 4.8 8.0 0.00 0.00 0.00 48 1012.6
20260503234008 14 90 3.2 11.3 0.00 0.00 0.00 49 1012.6
20260503233010 14 90 3.2 6.4 0.00 0.00 0.00 49 1012.7
20260503231015 16 90 4.8 9.7 0.00 0.00 0.00 49 1013.0